World > North America > United States > New Jersey

West Milford, New Jersey Regional Weather

Lat: 41.11N, Lon: 74.4W
Wx Zone: NJZ002Web Search

Helpful Tip: Abbreviated, 7 Day, 14 Day Forecasts. There is a weather forecast for every taste.

Feedback
West Milford Weather Map
UTC Time: 1/25/2021, 04:14
Your Time:

West Milford, NJ Regional Weather

Expires:202101250500;;446088
ASUS41 KPHI 250412
RWRPHI

REGIONAL WEATHER ROUNDUP
NATIONAL WEATHER SERVICE MOUNT HOLLY NJ
1100 PM EST SUN JAN 24 2021

NOTE:  "FAIR" INDICATES FEW OR NO CLOUDS BELOW 12,000 FEET WITH NO
SIGNIFICANT WEATHER AND/OR OBSTRUCTIONS TO VISIBILITY.

 * = STATION DOES NOT REPORT PRECIPITATION (E.G. RAIN, SNOW, ETC.) 
        OR FOG.


NJZ001>014-250500-
NORTHERN NEW JERSEY
  
CITY           SKY/WX    TMP DP  RH WIND       PRES   REMARKS
SUSSEX         PTCLDY    23   9  55 VRB5      30.13F WCI  17          
ANDOVER*         N/A     24   9  52 N3        30.13F                  
MORRISTOWN     MOCLDY    27   7  43 NW7       30.14S WCI  19          
NEWARK         MOCLDY    28   7  41 NW8       30.14F WCI  20          
TETERBORO      PTCLDY    26   8  46 N6        30.14S WCI  19          
CALDWELL       CLOUDY    27   7  42 N5        30.15S WCI  22          
SOMERVILLE     MOCLDY    28   8  43 NW6       30.14R WCI  22          
ALLAIRE*       MOCLDY    28  10  46 W7        30.14S WCI  21          
TOMS RIVER*    CLOUDY    30  12  47 NW7       30.15S WCI  23          

$$

SKY/WX - Weather  TMP - Temperature  DP - Dew Point  RH - Relative Humidity
WIND - Wind Direction/Speed PRES - Barometric Pressure VSB - Visibility
WCI - Wind Chill Index E13G22 Wind - East Wind 13 mph/Gusts of 22 mph
West Milford, NJ web page url QR Code Scan this code with your camera.